Mojave, CA

3:54 AM PDT on October 15, 2019 (GMT -0700)
Mojave

Weather History for KMHV - May, 2019

Change the Weather History Date:

Tuesday, May 21, 2019

  Actual Average Record
Temperature  
Mean Temperature 54 °F -  
Max Temperature 57 °F 81 °F 99 °F (1967)
Min Temperature 50 °F 55 °F 40 °F (1965)
Degree Days  
Heating Degree Days 12    
Growing Degree Days 4 (Base 50)    
Moisture  
Dew Point 38 °F    
Average Humidity 58    
Maximum Humidity 67    
Minimum Humidity 47    
Precipitation  
Precipitation 0.00 in - - ()
Sea Level Pressure  
Sea Level Pressure 29.82 in    
Wind  
Wind Speed 23 mph (West)    
Max Wind Speed 39 mph    
Max Gust Speed 51 mph    
Visibility 10 miles    
Events      
Averages and records for this station are not official NWS values.
T = Trace of Precipitation, MM = Missing Value Source: NWS Daily Summary

Daily Weather History Graph

Daily Weather History Graph

Search for Another Location

Airport or City:

Astronomy

May. 21, 2019 Rise Set
Actual Time 5:44 AM PDT 7:53 PM PDT
Civil Twilight 5:16 AM PDT 8:22 PM PDT
Nautical Twilight 4:41 AM PDT 8:57 PM PDT
Astronomical Twilight 4:03 AM PDT 9:35 PM PDT
Moon 10:52 PM PDT (5/21) 8:06 AM PDT (5/21)
Length of Visible Light 15h 06m
Length of Day
14h 09m
Waning Gibbous, 91% of the Moon is Illuminated
May 21
Waning Gibbous
May 26
Last Quarter
Jun 3
New
Jun 9
First Quarter
Jun 17
Full

Hourly Weather History & Observations

Time (PDT) Temp. Dew Point Humidity Pressure Visibility Wind Dir Wind Speed Gust Speed Precip Events Conditions
12:00 AM 50.0 °F 39.2 °F 66% 29.90 in 10.0 mi West 29.9 mph 36.8 mph N/A   Clear
12:20 AM 50.0 °F 39.2 °F 66% 29.90 in 10.0 mi West 29.9 mph - N/A   Clear
12:40 AM 50.0 °F 39.2 °F 66% 29.88 in 10.0 mi West 31.1 mph 41.4 mph N/A   Clear
1:00 AM 50.0 °F 39.2 °F 66% 29.87 in 10.0 mi West 29.9 mph 41.4 mph N/A   Clear
1:20 AM 50.0 °F 39.2 °F 66% 29.88 in 10.0 mi West 34.5 mph 43.7 mph N/A   Partly Cloudy
1:40 AM 50.0 °F 39.2 °F 66% 29.87 in 10.0 mi West 33.4 mph 41.4 mph N/A   Scattered Clouds
2:00 AM 50.0 °F 39.2 °F 66% 29.89 in 10.0 mi West 26.5 mph 36.8 mph N/A   Scattered Clouds
2:20 AM 50.0 °F 39.2 °F 66% 29.90 in 10.0 mi West 25.3 mph 33.4 mph N/A   Mostly Cloudy
2:40 AM 50.0 °F 39.2 °F 66% 29.89 in 10.0 mi West 16.1 mph 21.9 mph N/A   Overcast
3:00 AM 50.0 °F 37.4 °F 62% 29.89 in 10.0 mi West 11.5 mph 19.6 mph N/A   Overcast
3:20 AM 51.8 °F 37.4 °F 58% 29.88 in 10.0 mi WSW 10.4 mph 17.3 mph N/A   Overcast
3:40 AM 51.8 °F 37.4 °F 58% 29.88 in 10.0 mi West 16.1 mph 23.0 mph N/A   Overcast
4:00 AM 51.8 °F 39.2 °F 62% 29.88 in 10.0 mi West 16.1 mph - N/A   Overcast
4:20 AM 51.8 °F 39.2 °F 62% 29.87 in 10.0 mi SW 13.8 mph 24.2 mph N/A   Overcast
4:40 AM 51.8 °F 39.2 °F 62% 29.87 in 10.0 mi WSW 17.3 mph 23.0 mph N/A   Overcast
5:00 AM 51.8 °F 39.2 °F 62% 29.86 in 10.0 mi WSW 25.3 mph - N/A   Overcast
5:20 AM 51.8 °F 39.2 °F 62% 29.86 in 10.0 mi WSW 19.6 mph 28.8 mph N/A   Overcast
5:40 AM 51.8 °F 39.2 °F 62% 29.86 in 10.0 mi WSW 23.0 mph 28.8 mph N/A   Overcast
6:00 AM 51.8 °F 39.2 °F 62% 29.86 in 10.0 mi SW 18.4 mph 28.8 mph N/A   Overcast
6:20 AM 51.8 °F 39.2 °F 62% 29.86 in 10.0 mi WSW 15.0 mph - N/A   Overcast
6:40 AM 51.8 °F 39.2 °F 62% 29.85 in 10.0 mi SSW 15.0 mph 24.2 mph N/A   Overcast
7:00 AM 51.8 °F 39.2 °F 62% 29.84 in 10.0 mi WSW 18.4 mph 28.8 mph N/A   Overcast
7:20 AM 50.0 °F 39.2 °F 66% 29.84 in 10.0 mi WSW 24.2 mph 33.4 mph N/A   Overcast
7:40 AM 50.0 °F 39.2 °F 66% 29.84 in 10.0 mi WSW 21.9 mph 29.9 mph N/A   Overcast
8:00 AM 50.0 °F 39.2 °F 66% 29.85 in 10.0 mi WSW 17.3 mph 27.6 mph N/A   Overcast
8:20 AM 50.0 °F 39.2 °F 66% 29.84 in 10.0 mi SW 16.1 mph 29.9 mph N/A   Overcast
8:40 AM 50.0 °F 39.2 °F 66% 29.85 in 10.0 mi WSW 19.6 mph 26.5 mph N/A   Overcast
9:00 AM 50.0 °F 39.2 °F 66% 29.84 in 10.0 mi WSW 13.8 mph 26.5 mph N/A   Overcast
9:20 AM 51.8 °F 35.6 °F 54% 29.84 in 10.0 mi WSW 16.1 mph 31.1 mph N/A   Overcast
9:40 AM 51.8 °F 37.4 °F 58% 29.84 in 10.0 mi WSW 19.6 mph 25.3 mph N/A   Overcast
10:00 AM 51.8 °F 37.4 °F 58% 29.84 in 10.0 mi SW 19.6 mph - N/A   Overcast
10:20 AM 51.8 °F 37.4 °F 58% 29.84 in 10.0 mi WNW 16.1 mph 25.3 mph N/A   Overcast
10:40 AM 51.8 °F 37.4 °F 58% 29.85 in 10.0 mi WSW 18.4 mph 27.6 mph N/A   Overcast
11:00 AM 51.8 °F 37.4 °F 58% 29.84 in 10.0 mi West 28.8 mph 36.8 mph N/A   Overcast
11:20 AM 51.8 °F 37.4 °F 58% 29.83 in 10.0 mi West 12.7 mph 20.7 mph N/A   Overcast
11:40 AM 53.6 °F 37.4 °F 54% 29.84 in 10.0 mi West 26.5 mph 39.1 mph N/A   Overcast
12:00 PM 51.8 °F 39.2 °F 62% 29.83 in 10.0 mi WSW 23.0 mph 41.4 mph N/A   Overcast
12:20 PM 51.8 °F 39.2 °F 62% 29.83 in 10.0 mi WSW 17.3 mph 27.6 mph N/A   Overcast
12:40 PM 51.8 °F 41.0 °F 67% 29.82 in 10.0 mi West 25.3 mph 32.2 mph N/A   Overcast
1:00 PM 51.8 °F 39.2 °F 62% 29.82 in 10.0 mi West 19.6 mph 32.2 mph N/A   Overcast
1:20 PM 53.6 °F 41.0 °F 62% 29.82 in 10.0 mi West 23.0 mph - N/A   Overcast
1:40 PM 55.4 °F 39.2 °F 54% 29.81 in 10.0 mi WSW 19.6 mph 29.9 mph N/A   Overcast
2:00 PM 55.4 °F 39.2 °F 54% 29.80 in 10.0 mi West 31.1 mph 39.1 mph N/A   Overcast
2:20 PM 55.4 °F 39.2 °F 54% 29.80 in 10.0 mi West 15.0 mph 38.0 mph N/A   Overcast
2:40 PM 53.6 °F 37.4 °F 54% 29.80 in 10.0 mi West 24.2 mph - N/A   Overcast
3:00 PM 53.6 °F 39.2 °F 58% 29.80 in 10.0 mi West 16.1 mph 26.5 mph N/A   Overcast
3:20 PM 53.6 °F 39.2 °F 58% 29.80 in 10.0 mi WNW 19.6 mph 31.1 mph N/A   Overcast
3:40 PM 53.6 °F 39.2 °F 58% 29.79 in 10.0 mi WSW 20.7 mph 31.1 mph N/A   Overcast
4:00 PM 55.4 °F 37.4 °F 51% 29.78 in 10.0 mi West 13.8 mph 34.5 mph N/A   Overcast
4:20 PM 57.2 °F 37.4 °F 48% 29.77 in 10.0 mi West 26.5 mph 36.8 mph N/A   Overcast
4:40 PM 55.4 °F 37.4 °F 51% 29.77 in 10.0 mi WNW 19.6 mph 32.2 mph N/A   Overcast
5:00 PM 55.4 °F 37.4 °F 51% 29.77 in 10.0 mi West 20.7 mph 29.9 mph N/A   Overcast
5:20 PM 55.4 °F 37.4 °F 51% 29.77 in 10.0 mi West 17.3 mph - N/A   Overcast
5:40 PM 57.2 °F 37.4 °F 48% 29.76 in 10.0 mi West 21.9 mph 27.6 mph N/A   Overcast
6:00 PM 55.4 °F 37.4 °F 51% 29.76 in 10.0 mi WNW 18.4 mph 28.8 mph N/A   Mostly Cloudy
6:20 PM 55.4 °F 35.6 °F 47% 29.75 in 10.0 mi WNW 15.0 mph 24.2 mph N/A   Mostly Cloudy
6:40 PM 55.4 °F 37.4 °F 51% 29.75 in 10.0 mi West 17.3 mph 26.5 mph N/A   Mostly Cloudy
7:00 PM 55.4 °F 35.6 °F 47% 29.74 in 10.0 mi WNW 18.4 mph 31.1 mph N/A   Scattered Clouds
7:20 PM 53.6 °F 37.4 °F 54% 29.75 in 10.0 mi West 12.7 mph 21.9 mph N/A   Mostly Cloudy
7:40 PM 53.6 °F 37.4 °F 54% 29.75 in 10.0 mi West 15.0 mph 23.0 mph N/A   Overcast
8:00 PM 53.6 °F 35.6 °F 51% 29.76 in 10.0 mi West 13.8 mph 21.9 mph N/A   Overcast
8:20 PM 53.6 °F 35.6 °F 51% 29.77 in 10.0 mi Variable 4.6 mph 12.7 mph N/A   Overcast
8:40 PM 53.6 °F 35.6 °F 51% 29.77 in 10.0 mi West 16.1 mph 23.0 mph N/A   Overcast
9:00 PM 51.8 °F 35.6 °F 54% 29.78 in 10.0 mi West 8.1 mph 18.4 mph N/A   Overcast
9:20 PM 51.8 °F 35.6 °F 54% 29.78 in 10.0 mi WSW 10.4 mph - N/A   Overcast
9:40 PM 51.8 °F 35.6 °F 54% 29.78 in 10.0 mi WSW 19.6 mph 27.6 mph N/A   Overcast
10:00 PM 50.0 °F 35.6 °F 58% 29.76 in 10.0 mi WSW 24.2 mph - N/A   Mostly Cloudy
10:20 PM 50.0 °F 35.6 °F 58% 29.72 in 10.0 mi West 29.9 mph 36.8 mph N/A   Partly Cloudy
10:40 PM 50.0 °F 35.6 °F 58% 29.70 in 10.0 mi West 39.1 mph 46.0 mph N/A   Clear
11:00 PM 50.0 °F 35.6 °F 58% 29.69 in 10.0 mi West 39.1 mph 50.6 mph N/A   Clear
11:20 PM 50.0 °F 33.8 °F 54% 29.68 in 10.0 mi West 33.4 mph 49.5 mph N/A   Clear
11:40 PM 50.0 °F 33.8 °F 54% 29.67 in 10.0 mi WNW 38.0 mph 48.3 mph N/A   Clear